• In Deutschland
  • Länderverzeichnis
  • Für 7 Tage
  • Wassertemperatur
  • Satellitenkarten
  • Wetterkarte
  • Widgets
  • user-avatar
    Anmelden

    Stündliche Wetter Emmerich

    Heute, 20 Oktober, Freitag

    Zeit Temperatur Niederschläge Wind Luftdruck Luftfeuchtigkeit
    00:00 +17°C° 0 mm 5 m/S 754 mmHg 67%
    01:00 +16°C° 0,1 mm 5 m/S 754 mmHg 68%
    02:00 +16°C° 0,1 mm 5 m/S 754 mmHg 68%
    03:00 +16°C° 0,1 mm 5 m/S 754 mmHg 69%
    04:00 +15°C° 0,1 mm 5 m/S 754 mmHg 72%
    05:00 +15°C° 0,1 mm 5 m/S 754 mmHg 76%
    06:00 +15°C° 0,1 mm 5 m/S 754 mmHg 80%
    07:00 +15°C° 0,2 mm 6 m/S 754 mmHg 79%
    08:00 +15°C° 0,2 mm 6 m/S 754 mmHg 77%
    09:00 +15°C° 0,2 mm 7 m/S 755 mmHg 76%
    10:00 +15°C° 0 mm 7 m/S 755 mmHg 72%
    11:00 +15°C° 0 mm 7 m/S 755 mmHg 68%
    12:00 +16°C° 0 mm 8 m/S 755 mmHg 64%
    13:00 +15°C° 0,2 mm 7 m/S 755 mmHg 67%
    14:00 +14°C° 0,2 mm 7 m/S 755 mmHg 71%
    15:00 +14°C° 0,2 mm 7 m/S 755 mmHg 74%
    16:00 +13°C° 0,1 mm 6 m/S 756 mmHg 74%
    17:00 +13°C° 0,1 mm 6 m/S 757 mmHg 73%
    18:00 +13°C° 0,1 mm 6 m/S 757 mmHg 73%
    19:00 +13°C° 0 mm 6 m/S 757 mmHg 74%
    20:00 +11°C° 0 mm 6 m/S 758 mmHg 75%
    21:00 +12°C° 0 mm 5 m/S 758 mmHg 76%
    22:00 +10°C° 0 mm 5 m/S 758 mmHg 77%
    23:00 +10°C° 0 mm 4 m/S 758 mmHg 79%

    Morgen, 21 Oktober, Samstag

    Zeit Temperatur Niederschläge Wind Luftdruck Luftfeuchtigkeit
    00:00 +10°C° 0 mm 4 m/S 758 mmHg 81%
    01:00 +10°C° 0 mm 4 m/S 757 mmHg 78%
    02:00 +11°C° 0 mm 4 m/S 757 mmHg 76%
    03:00 +11°C° 0 mm 4 m/S 757 mmHg 74%
    04:00 +11°C° 0 mm 4 m/S 756 mmHg 75%
    05:00 +11°C° 0 mm 4 m/S 756 mmHg 76%
    06:00 +11°C° 0 mm 4 m/S 756 mmHg 78%
    07:00 +12°C° 0,2 mm 5 m/S 756 mmHg 80%
    08:00 +13°C° 0,2 mm 5 m/S 755 mmHg 83%
    09:00 +14°C° 0,2 mm 5 m/S 755 mmHg 86%
    10:00 +14°C° 0,3 mm 5 m/S 755 mmHg 86%
    11:00 +14°C° 0,3 mm 5 m/S 755 mmHg 86%
    12:00 +15°C° 0,3 mm 5 m/S 755 mmHg 87%
    13:00 +15°C° 0,2 mm 5 m/S 755 mmHg 83%
    14:00 +15°C° 0,2 mm 5 m/S 755 mmHg 78%
    15:00 +15°C° 0,2 mm 5 m/S 755 mmHg 74%
    16:00 +14°C° 0 mm 5 m/S 755 mmHg 75%
    17:00 +13°C° 0 mm 5 m/S 756 mmHg 76%
    18:00 +12°C° 0 mm 5 m/S 756 mmHg 77%
    19:00 +12°C° 0 mm 5 m/S 756 mmHg 76%
    20:00 +10°C° 0 mm 5 m/S 756 mmHg 76%
    21:00 +10°C° 0 mm 6 m/S 756 mmHg 75%
    22:00 +10°C° 0 mm 6 m/S 756 mmHg 74%
    23:00 +10°C° 0 mm 6 m/S 756 mmHg 73%

    übermorgen, 22 Oktober, Sonntag

    Zeit Temperatur Niederschläge Wind Luftdruck Luftfeuchtigkeit
    00:00 +9°C° 0 mm 7 m/S 755 mmHg 72%
    01:00 +9°C° 0,1 mm 7 m/S 755 mmHg 73%
    02:00 +9°C° 0,1 mm 8 m/S 755 mmHg 73%
    03:00 +9°C° 0,1 mm 8 m/S 755 mmHg 74%
    04:00 +9°C° 0,2 mm 8 m/S 755 mmHg 76%
    05:00 +9°C° 0,2 mm 8 m/S 755 mmHg 78%
    06:00 +9°C° 0,2 mm 8 m/S 755 mmHg 80%
    07:00 +9°C° 0 mm 8 m/S 755 mmHg 78%
    08:00 +10°C° 0 mm 8 m/S 755 mmHg 76%
    09:00 +10°C° 0 mm 8 m/S 755 mmHg 75%
    10:00 +11°C° 0,1 mm 8 m/S 756 mmHg 73%
    11:00 +11°C° 0,1 mm 8 m/S 756 mmHg 71%
    12:00 +11°C° 0,1 mm 7 m/S 756 mmHg 69%
    13:00 +11°C° 0,7 mm 7 m/S 756 mmHg 73%
    14:00 +10°C° 0,7 mm 7 m/S 756 mmHg 78%
    15:00 +9°C° 0,7 mm 6 m/S 756 mmHg 82%
    16:00 +9°C° 0,2 mm 6 m/S 756 mmHg 82%
    17:00 +9°C° 0,2 mm 5 m/S 757 mmHg 82%
    18:00 +9°C° 0,2 mm 5 m/S 757 mmHg 82%
    19:00 +8°C° 0 mm 5 m/S 757 mmHg 82%
    20:00 +8°C° 0 mm 5 m/S 758 mmHg 82%
    21:00 +8°C° 0 mm 5 m/S 758 mmHg 82%
    22:00 +8°C° 0,2 mm 5 m/S 758 mmHg 85%
    23:00 +8°C° 0,2 mm 5 m/S 758 mmHg 87%

    23 Oktober, Montag

    Zeit Temperatur Niederschläge Wind Luftdruck Luftfeuchtigkeit
    00:00 +8°C° 0,2 mm 5 m/S 758 mmHg 90%
    01:00 +8°C° 0,4 mm 5 m/S 758 mmHg 90%
    02:00 +9°C° 0,4 mm 5 m/S 758 mmHg 90%
    03:00 +9°C° 0,4 mm 5 m/S 758 mmHg 90%
    04:00 +9°C° 0,3 mm 5 m/S 758 mmHg 90%
    05:00 +9°C° 0,3 mm 5 m/S 758 mmHg 89%
    06:00 +10°C° 0,3 mm 5 m/S 759 mmHg 88%
    07:00 +10°C° 0 mm 5 m/S 759 mmHg 85%
    08:00 +12°C° 0 mm 5 m/S 759 mmHg 83%
    09:00 +12°C° 0 mm 5 m/S 760 mmHg 80%
    10:00 +13°C° 0,1 mm 5 m/S 760 mmHg 78%
    11:00 +13°C° 0,1 mm 5 m/S 760 mmHg 76%
    12:00 +14°C° 0,1 mm 5 m/S 760 mmHg 74%
    13:00 +13°C° 0,2 mm 5 m/S 760 mmHg 78%
    14:00 +13°C° 0,2 mm 4 m/S 760 mmHg 82%
    15:00 +13°C° 0,2 mm 4 m/S 760 mmHg 86%
    16:00 +12°C° 0,4 mm 4 m/S 760 mmHg 88%
    17:00 +12°C° 0,4 mm 4 m/S 760 mmHg 90%
    18:00 +12°C° 0,4 mm 3 m/S 760 mmHg 93%
    19:00 +12°C° 0,2 mm 3 m/S 760 mmHg 93%
    20:00 +12°C° 0,2 mm 3 m/S 760 mmHg 93%
    21:00 +12°C° 0,2 mm 3 m/S 760 mmHg 94%
    22:00 +12°C° 0 mm 3 m/S 761 mmHg 94%
    23:00 +13°C° 0 mm 2 m/S 761 mmHg 94%

    24 Oktober, Dienstag

    Zeit Temperatur Niederschläge Wind Luftdruck Luftfeuchtigkeit
    00:00 +13°C° 0 mm 2 m/S 761 mmHg 94%
    01:00 +13°C° 0,2 mm 2 m/S 760 mmHg 95%
    02:00 +13°C° 0,2 mm 2 m/S 760 mmHg 95%
    03:00 +13°C° 0,2 mm 2 m/S 760 mmHg 96%
    04:00 +13°C° 0,6 mm 2 m/S 760 mmHg 96%
    05:00 +14°C° 0,6 mm 2 m/S 761 mmHg 96%
    06:00 +14°C° 0,6 mm 2 m/S 761 mmHg 97%
    07:00 +13°C° 0,2 mm 3 m/S 761 mmHg 96%
    08:00 +14°C° 0,2 mm 3 m/S 761 mmHg 96%
    09:00 +14°C° 0,2 mm 3 m/S 762 mmHg 95%
    10:00 +16°C° 0,1 mm 3 m/S 762 mmHg 92%
    11:00 +17°C° 0,1 mm 3 m/S 762 mmHg 88%
    12:00 +18°C° 0,1 mm 3 m/S 762 mmHg 85%
    13:00 +18°C° 0,1 mm 3 m/S 762 mmHg 84%
    14:00 +18°C° 0,1 mm 3 m/S 762 mmHg 84%
    15:00 +18°C° 0,1 mm 3 m/S 762 mmHg 83%
    16:00 +18°C° 0 mm 3 m/S 763 mmHg 86%
    17:00 +17°C° 0 mm 2 m/S 763 mmHg 88%
    18:00 +16°C° 0 mm 2 m/S 763 mmHg 90%
    19:00 +16°C° 0 mm 3 m/S 763 mmHg 91%
    20:00 +16°C° 0 mm 3 m/S 763 mmHg 92%
    21:00 +16°C° 0 mm 3 m/S 764 mmHg 93%
    22:00 +16°C° 0,1 mm 3 m/S 764 mmHg 94%
    23:00 +16°C° 0,1 mm 3 m/S 764 mmHg 95%

    25 Oktober, Mittwoch

    Zeit Temperatur Niederschläge Wind Luftdruck Luftfeuchtigkeit
    00:00 +16°C° 0,1 mm 3 m/S 764 mmHg 96%
    01:00 +15°C° 0 mm 4 m/S 764 mmHg 95%
    02:00 +14°C° 0 mm 4 m/S 764 mmHg 95%
    03:00 +14°C° 0 mm 4 m/S 764 mmHg 95%
    04:00 +14°C° 0 mm 4 m/S 764 mmHg 94%
    05:00 +13°C° 0 mm 4 m/S 764 mmHg 94%
    06:00 +13°C° 0 mm 4 m/S 764 mmHg 93%
    07:00 +14°C° 0 mm 4 m/S 765 mmHg 91%
    08:00 +14°C° 0 mm 4 m/S 765 mmHg 88%
    09:00 +15°C° 0 mm 4 m/S 765 mmHg 86%
    10:00 +15°C° 0 mm 4 m/S 765 mmHg 83%
    11:00 +17°C° 0 mm 4 m/S 766 mmHg 81%
    12:00 +18°C° 0 mm 4 m/S 766 mmHg 78%
    13:00 +18°C° 0 mm 3 m/S 766 mmHg 78%
    14:00 +18°C° 0 mm 3 m/S 766 mmHg 79%
    15:00 +18°C° 0 mm 2 m/S 766 mmHg 79%
    16:00 +17°C° 0 mm 2 m/S 766 mmHg 81%
    17:00 +17°C° 0 mm 2 m/S 766 mmHg 83%
    18:00 +16°C° 0 mm 2 m/S 767 mmHg 85%
    19:00 +16°C° 0 mm 2 m/S 767 mmHg 87%
    20:00 +15°C° 0 mm 2 m/S 767 mmHg 88%
    21:00 +15°C° 0 mm 2 m/S 767 mmHg 90%
    22:00 +15°C° 0 mm 2 m/S 767 mmHg 91%
    23:00 +14°C° 0 mm 2 m/S 767 mmHg 91%
    Mehr zeigen